Погода в Шатуре

Россия / Московская область     55°34′39″N   39°32′40″E
темп.,
°C
ветер,
м/с
пор.,
м/с
влажн.,
%
обл.,
%
осадки,
мм/ч
давл.,
гПа
погр.,
м
29 июня, ср
ср2900:00+11св27740 0.0 1023120
03:00+9ссв22750 0.0 102329
06:00+12ссв23670 0.0 1024142
09:00+18св23450 0.0 10231000
12:00+21св33310 0.0 10221777
15:00+22ссв33290 0.0 10212057
18:00+21ссв33360 0.0 10201491
21:00+14св25620 0.0 102068
30 июня, чт
чт3000:00+11ссв227423 0.0 102021
03:00+11с1279100 0.0 102016
06:00+13ссз23695 0.0 1020126
09:00+19с35435 0.0 10191069
12:00+23с45295 0.0 10181993
15:00+24с56283 0.0 10172241
18:00+22ссв46415 0.0 10171932
21:00+16ссз25650 0.0 101782
1 июля, пт
пт100:00+13ссз25800 0.0 101887
03:00+11с26840 0.0 1019105
06:00+13ссв36725 0.0 1019187
09:00+19ссв47435 0.0 10201334
12:00+22ссв57330 0.0 10201943
15:00+22ссв57313 0.0 10202091
18:00+21св364081 0.0 10201894
21:00+15с22651 0.0 102011
2 июля, сб
сб200:00+12ссз11753 0.0 102110
03:00+11зсз22785 0.0 102123
06:00+14зсз2568100 0.0 1020137
09:00+21зсз3646100 0.0 1019617
12:00+24сз4751100 0.3 10171292
15:00+28ссз484491 0.4 10152437
18:00+21ссз148591 10.3 101592
21:00+18с22900 10.8 101539
3 июля, вс
вс300:00+16с22940 0.0 101616
03:00+16с229496 0.0 101618
06:00+17св14920 0.0 1017135
09:00+23св23590 0.0 1017715
12:00+26ссв35399 0.0 10172263
15:00+27св34355 0.0 10172482
18:00+25в34489 0.0 1017787
21:00+19ю23781 0.0 101853